EGCC

Manchester International Airport

Airport
ICAO code
EGCC
IATA Code
MAN
Summary
ICAO Region
EUR
ICAO Territory
Location

Ringway, Manchester, England,

Serving
Manchester
Coordinates
53° 21' 32" N , 2° 16' 27" W
KCC
Metar
Observation
EGCC 271550Z AUTO VRB02KT 9999 BKN031 10/07 Q1008
Station
Manchester Airport
Date/Time
2022-11-27 15:50:00
Wind speed
02 kts
Lowest cloud amount
broken clouds
Temperature
10°C
Dew point
7°C
Humidity
81%
QNH
1008 hPa
Weather condition
n/a

Description

International airport serving Greater Manchester and the north-west region of England; has a co-located railway station with frequent services to many northern England destinations. Trades commercially as "Manchester International Airport"

Climatology

Temperate Marine climate/Oceanic climate (Köppen climate classification Cfb). Moderately cool summer and comparatively warm winter with a temperature range of only 14°C. Prevailing south-westerly winds from the Atlantic Ocean.

Runways

Designator Length Width Surface Rops
05R/23L 3047 46 CON Yes/Yes
05L/23R 3048 46 ASP Yes/Yes

SKYbrary Partners:

Safety knowledge contributed by: